Flag for New Zealand Weather past 2 weeks in Christchurch, New Zealand

Now
63 °F

Mild.


Feels Like: 63 °F
Forecast: 38 / 47 °F
Wind: 10 mph from Northwest

Location: Christchurch Airport

Current Time: Sep 5, 2015 at 1:44:51 PM

Latest Report: Sep 5, 2015 at 1:00 PM


Visibility: N/A

Pressure: 29.36 "Hg

Humidity: 34%

Dew point: 34 °F

Location of ChristchurchLocation

Historic Weather in Christchurch — Graph

°F

Christchurch temperature yesterday

Maximum temperature yesterday: 52 °F (at 9:00 AM)
Minimum temperature yesterday: 37 °F (at 10:00 PM)
Average temperature yesterday: 44 °F

Past Weeks' High & Low Weather Summary

 TemperatureHumidityPressure
High63 °F (Sep 2, 3:30 PM)100% (Aug 22, 12:00 AM)30.54 "Hg (Aug 22, 12:00 AM)
Low27 °F (Aug 26, 5:30 AM)39% (Sep 5, 12:30 PM)29.30 "Hg (Sep 2, 1:30 PM)
Average44 °F85%30.00 "Hg
* Reported Aug 21 12:00 Noon — Sep 5 12:30 PM, Christchurch, Weather by CustomWeather, © 2015

Note: Actual official high and low records may vary slightly from our data, if they occured in-between our weather recording intervals... More about our weather records

Advertising

Christchurch weather history for previous 24 hours

 ConditionsComfort  
Time TempWeatherWind HumidityBarometerVisibility
12:30 PM
Sat, Sep 5
61 °FRefreshingly cool.10 mph39%29.36 "HgN/A
12:00 PM59 °FRefreshingly cool.13 mph45%29.39 "HgN/A
11:30 AM55 °FRefreshingly cool.8 mph47%29.39 "HgN/A
11:00 AM54 °FCool.9 mph54%29.42 "HgN/A
10:30 AM52 °FCool.13 mph54%29.42 "HgN/A
9:30 AM45 °FQuite cool.8 mph71%29.45 "HgN/A
9:00 AM43 °FQuite cool.6 mph76%29.45 "HgN/A
8:30 AM41 °FQuite cool.10 mph76%29.47 "HgN/A
8:00 AM39 °FChilly.6 mph87%29.47 "HgN/A
7:30 AM36 °FChilly.7 mph87%29.47 "HgN/A
7:00 AM37 °FChilly.8 mph81%29.47 "HgN/A
6:30 AM37 °FChilly.8 mph81%29.50 "HgN/A
6:00 AM37 °FChilly.7 mph81%29.50 "HgN/A
5:30 AM37 °FChilly.8 mph81%29.50 "HgN/A
5:00 AM36 °FChilly.8 mph87%29.53 "HgN/A
4:30 AM36 °FChilly.8 mph93%29.53 "HgN/A
4:00 AM36 °FChilly.8 mph93%29.53 "HgN/A
3:30 AM36 °FChilly.8 mph87%29.56 "HgN/A
3:00 AM34 °FChilly.7 mph93%29.59 "HgN/A
2:30 AM34 °FChilly.9 mph93%29.59 "HgN/A
2:00 AM36 °FChilly.9 mph93%29.62 "HgN/A
1:30 AM37 °FChilly.9 mph87%29.62 "HgN/A
1:00 AM36 °FChilly.7 mph93%29.62 "HgN/A
12:30 AM36 °FChilly.9 mph93%29.65 "HgN/A
12:00 AM37 °FChilly.9 mph87%29.65 "HgN/A
11:30 PM
Fri, Sep 4
37 °FChilly.6 mph87%29.68 "HgN/A
11:00 PM39 °FChilly.8 mph87%29.68 "HgN/A
10:30 PM39 °FPassing clouds.8 mph87%29.68 "HgN/A
10:00 PM37 °FPartly cloudy.5 mph93%29.71 "HgN/A
9:30 PM39 °FMostly cloudy.3 mph87%29.71 "HgN/A
9:00 PM39 °FPartly cloudy.5 mph87%29.71 "HgN/A
8:30 PM41 °FPassing clouds.5 mph81%29.71 "HgN/A
8:00 PM41 °FMostly cloudy.5 mph81%29.71 "HgN/A
7:30 PM41 °FPassing clouds.3 mph81%29.71 "HgN/A
7:00 PM43 °FMostly cloudy.3 mph71%29.71 "HgN/A
6:30 PM43 °FOvercast.3 mph76%29.71 "HgN/A
6:00 PM43 °FPassing clouds.3 mph71%29.71 "HgN/A
5:30 PM45 °FOvercast.7 mph66%29.71 "HgN/A
5:00 PM45 °FMore clouds than sun.12 mph66%29.71 "HgN/A
4:30 PM45 °FOvercast.12 mph71%29.68 "HgN/A
4:00 PM45 °FCloudy.17 mph66%29.68 "HgN/A
3:30 PM46 °FOvercast.16 mph62%29.68 "HgN/A
3:00 PM46 °FCloudy.17 mph62%29.68 "HgN/A
2:30 PM46 °FOvercast.15 mph62%29.65 "HgN/A
2:00 PM46 °FMostly cloudy.17 mph66%29.65 "HgN/A
1:30 PM45 °FSprinkles. Mostly cloudy.20 mph81%29.65 "HgN/A
1:00 PM45 °FSprinkles. Broken clouds.17 mph81%29.62 "HgN/A
Weather by CustomWeather, © 2015

See weather overviewHow to use our weather pages